This is the latest recevied weather packets stored in our database for station/object KB0VBZ. If no packets are shown the sender has not sent any weather packets the latest 1 day(s).
| Time | Temp. | Humidity | Pressure | Rain* | Wind** | Luminosity | Snow |
|---|---|---|---|---|---|---|---|
| 1778001080 | 12.78° C | - | - | - | 2.68 m/s, 92° | - | - |
| 1778000107 | 15° C | - | - | - | 2.68 m/s, 91° | - | - |
| 1777999960 | 15° C | - | - | - | 2.68 m/s, 91° | - | - |
| 1777999498 | 15° C | - | - | - | 2.24 m/s, 337° | - | - |
| 1777999399 | 15° C | - | - | - | 3.13 m/s, 90° | - | - |
| 1777999274 | 15° C | - | - | - | 3.13 m/s, 90° | - | - |
| 1777998528 | 15° C | - | - | - | 3.58 m/s, 91° | - | - |
| 1777998154 | 15° C | - | - | - | 4.02 m/s, 92° | - | - |
| 1777997782 | 15° C | - | - | - | 3.13 m/s, 94° | - | - |
| 1777997408 | 15° C | - | - | - | 3.13 m/s, 100° | - | - |
| 1777997035 | 15° C | - | - | - | 4.02 m/s, 98° | - | - |
| 1777996289 | 15° C | - | - | - | 2.24 m/s, 90° | - | - |
| 1777996061 | 15° C | - | - | - | 3.13 m/s, 337° | - | - |
| 1777995997 | 15° C | - | - | - | 2.68 m/s, 90° | - | - |
| 1777995920 | 15° C | - | - | - | 2.68 m/s, 337° | - | - |
| 1777995476 | 15° C | - | - | - | 3.58 m/s, 90° | - | - |
| 1777995104 | 15° C | - | - | - | 2.68 m/s, 95° | - | - |
| 1777993610 | 15° C | - | - | - | 3.58 m/s, 93° | - | - |
| 1777992864 | 15° C | - | - | - | 3.13 m/s, 99° | - | - |
| 1777992800 | 15° C | - | - | - | 2.24 m/s, 337° | - | - |
| 1777991458 | 15° C | - | - | - | 2.24 m/s, 337° | - | - |
| 1777991085 | 15° C | - | - | - | 2.24 m/s, 337° | - | - |
| 1777990205 | 15° C | - | - | - | 3.58 m/s, 85° | - | - |
| 1777989639 | 15° C | - | - | - | 2.68 m/s, 70° | - | - |
| 1777989202 | 15° C | - | - | - | 2.24 m/s, 337° | - | - |
* Rain since midnight (hover to see other rain measurements)
** Current wind speed in m/s (hover to see current wind gust speed)